,,,PA_Meas_PMT16A,,PR_Meas_QMR101_102,,RH_Meas_QMH101,,SR_Meas_QMS101,,TA_Meas_QMH101,,GenWind,,GenWind,
date,time,status,PA,status,PR,status,RH,status,SR,status,TA,status,DirAvg,status,SpdAvg,
2009-02-05, 00:00:04,VALID,1001.36,VALID,0,VALID,85.5121,VALID,0,VALID,26.4687,VALID,278,VALID,0.710156,
2009-02-05, 00:01:04,VALID,1001.36,VALID,0,VALID,85.8402,VALID,0,VALID,26.4901,VALID,248,VALID,0.808594,
2009-02-05, 00:02:04,VALID,1001.35,VALID,0,VALID,86.3513,VALID,0,VALID,26.4492,VALID,248,VALID,0.398047,
2009-02-05, 00:03:04,VALID,1001.36,VALID,0,VALID,86.275,VALID,0,VALID,26.4102,VALID,266,VALID,0.672656,
2009-02-05, 00:04:04,VALID,1001.33,VALID,0,VALID,86.7404,VALID,0,VALID,26.3713,VALID,285,VALID,0.530078,
2009-02-05, 00:05:04,VALID,1001.36,VALID,0,VALID,87.1371,VALID,0,VALID,26.3128,VALID,284,VALID,0.279297,
2009-02-05, 00:06:04,VALID,1001.32,VALID,0,VALID,87.2591,VALID,0,VALID,26.2544,VALID,284,VALID,0.0773437,
2009-02-05, 00:07:04,VALID,1001.34,VALID,0,VALID,87.7779,VALID,0,VALID,26.1959,VALID,284,VALID,0.000390625,
2009-02-05, 00:08:04,VALID,1001.34,VALID,0,VALID,88.0602,VALID,0,VALID,26.159,VALID,317,VALID,0.576563,
2009-02-05, 00:09:04,VALID,1001.35,VALID,0,VALID,88.0907,VALID,0,VALID,26.12,VALID,348,VALID,0.638281,
2009-02-05, 00:10:04,VALID,1001.34,VALID,0,VALID,88.2814,VALID,0,VALID,26.0791,VALID,356,VALID,0.705078,
2009-02-05, 00:11:04,VALID,1001.34,VALID,0,VALID,88.434,VALID,0,VALID,26.0401,VALID,359,VALID,0.296094,
2009-02-05, 00:12:04,VALID,1001.33,VALID,0,VALID,88.4721,VALID,0,VALID,26.0206,VALID,357,VALID,0.769531,
2009-02-05, 00:13:04,VALID,1001.31,VALID,0,VALID,88.5942,VALID,0,VALID,26.0206,VALID,356,VALID,0.169531,
2009-02-05, 00:14:04,VALID,1001.31,VALID,0,VALID,88.7391,VALID,0,VALID,26.0206,VALID,356,VALID,0.0480469,
2009-02-05, 00:15:04,VALID,1001.29,VALID,0,VALID,88.9222,VALID,0,VALID,26.0206,VALID,356,VALID,0.219141,
2009-02-05, 00:16:04,VALID,1001.3,VALID,0,VALID,89.0061,VALID,0,VALID,26.0012,VALID,356,VALID,0.237891,
2009-02-05, 00:17:04,VALID,1001.28,VALID,0,VALID,89.1358,VALID,0,VALID,26.0206,VALID,356,VALID,0.0226563,
2009-02-05, 00:18:04,VALID,1001.28,VALID,0,VALID,89.1435,VALID,0,VALID,26.0421,VALID,340,VALID,0.207813,
2009-02-05, 00:19:04,VALID,1001.26,VALID,0,VALID,89.029,VALID,0,VALID,26.0012,VALID,280,VALID,0.382031,
2009-02-05, 00:20:04,VALID,1001.26,VALID,0,VALID,88.8154,VALID,0,VALID,26.0012,VALID,288,VALID,0.802734,
2009-02-05, 00:21:04,VALID,1001.27,VALID,0,VALID,88.9985,VALID,0,VALID,26.0206,VALID,305,VALID,0.246484,
2009-02-05, 00:22:04,VALID,1001.31,VALID,0,VALID,88.9985,VALID,0.100563,VALID,26.0401,VALID,304,VALID,0.19375,
2009-02-05, 00:23:04,VALID,1001.29,VALID,0,VALID,88.9299,VALID,0,VALID,25.9992,VALID,304,VALID,0.00703125,
2009-02-05, 00:24:04,VALID,1001.33,VALID,0,VALID,88.9604,VALID,0.100563,VALID,26.0187,VALID,305,VALID,0.0605469,
2009-02-05, 00:25:04,VALID,1001.32,VALID,0,VALID,88.9527,VALID,0,VALID,26.0206,VALID,311,VALID,0.259375,
2009-02-05, 00:26:04,VALID,1001.35,VALID,0,VALID,88.701,VALID,0.100563,VALID,26.0206,VALID,355,VALID,0.514453,
2009-02-05, 00:27:04,VALID,1001.35,VALID,0,VALID,88.6705,VALID,0.100563,VALID,26.0206,VALID,4,VALID,0.586328,
2009-02-05, 00:28:04,VALID,1001.35,VALID,0,VALID,88.5942,VALID,0,VALID,26.0401,VALID,348,VALID,1.05508,
2009-02-05, 00:29:04,VALID,1001.34,VALID,0,VALID,88.6934,VALID,0,VALID,26.0596,VALID,349,VALID,0.542578,
2009-02-05, 00:30:04,VALID,1001.31,VALID,0,VALID,88.5103,VALID,0,VALID,26.0401,VALID,340,VALID,1.04805,
2009-02-05, 00:31:04,VALID,1001.31,VALID,0,VALID,88.4721,VALID,0,VALID,26.0596,VALID,340,VALID,0.574609,
2009-02-05, 00:32:04,VALID,1001.29,VALID,0,VALID,88.5255,VALID,0,VALID,26.0791,VALID,339,VALID,0.229297,
2009-02-05, 00:33:04,VALID,1001.27,VALID,0,VALID,88.556,VALID,0.100563,VALID,26.0791,VALID,342,VALID,0.142578,
2009-02-05, 00:34:04,VALID,1001.25,VALID,0,VALID,88.2356,VALID,0,VALID,26.1005,VALID,348,VALID,0.858594,
2009-02-05, 00:35:04,VALID,1001.2,VALID,0,VALID,88.0678,VALID,0,VALID,26.0985,VALID,353,VALID,0.876172,
2009-02-05, 00:36:04,VALID,1001.17,VALID,0,VALID,87.9457,VALID,0,VALID,26.118,VALID,358,VALID,0.944141,
2009-02-05, 00:37:04,VALID,1001.15,VALID,0,VALID,87.9228,VALID,0.100563,VALID,26.1375,VALID,5,VALID,0.418359,
2009-02-05, 00:38:04,VALID,1001.12,VALID,0,VALID,87.8923,VALID,0.100563,VALID,26.157,VALID,336,VALID,0.286719,
2009-02-05, 00:39:04,VALID,1001.09,VALID,0,VALID,87.9,VALID,0,VALID,26.157,VALID,269,VALID,0.494141,
2009-02-05, 00:40:04,VALID,1001.09,VALID,0,VALID,87.8694,VALID,0,VALID,26.1375,VALID,269,VALID,0.199609,
2009-02-05, 00:41:04,VALID,1001.07,VALID,0,VALID,87.8466,VALID,0,VALID,26.1375,VALID,271,VALID,0.0824219,
2009-02-05, 00:42:04,VALID,1001.07,VALID,0,VALID,87.8008,VALID,0,VALID,26.157,VALID,271,VALID,0,
2009-02-05, 00:43:04,VALID,1001.07,VALID,0,VALID,87.7474,VALID,0,VALID,26.159,VALID,303,VALID,0.527344,
2009-02-05, 00:44:04,VALID,1001.06,VALID,0,VALID,87.7321,VALID,0,VALID,26.118,VALID,288,VALID,0.347656,
2009-02-05, 00:45:04,VALID,1001.07,VALID,0,VALID,87.9152,VALID,0,VALID,26.116,VALID,288,VALID,0.0234375,
2009-02-05, 00:46:04,VALID,1001.04,VALID,0,VALID,87.9534,VALID,0,VALID,26.118,VALID,288,VALID,0.0449219,
2009-02-05, 00:47:04,VALID,1001.08,VALID,0,VALID,87.8771,VALID,0,VALID,26.118,VALID,292,VALID,0.395312,
2009-02-05, 00:48:04,VALID,1001.05,VALID,0,VALID,88.0296,VALID,0.100563,VALID,26.118,VALID,286,VALID,0.188281,
2009-02-05, 00:49:04,VALID,1001.05,VALID,0,VALID,87.9152,VALID,0,VALID,26.0966,VALID,295,VALID,0.872266,
2009-02-05, 00:50:04,VALID,1001.04,VALID,0,VALID,87.9076,VALID,0,VALID,26.118,VALID,284,VALID,0.437109,
2009-02-05, 00:51:04,VALID,1001.02,VALID,0,VALID,88.0449,VALID,0,VALID,26.1375,VALID,276,VALID,0.377734,
2009-02-05, 00:52:04,VALID,1001.01,VALID,0,VALID,88.0373,VALID,0,VALID,26.1375,VALID,276,VALID,0.000390625,
2009-02-05, 00:53:04,VALID,1000.97,VALID,0,VALID,88.1365,VALID,0.100563,VALID,26.1375,VALID,276,VALID,0.235156,
2009-02-05, 00:54:04,VALID,1000.95,VALID,0,VALID,88.0144,VALID,0,VALID,26.1375,VALID,277,VALID,0.370703,
2009-02-05, 00:55:04,VALID,1000.92,VALID,0,VALID,88.1365,VALID,0,VALID,26.1375,VALID,277,VALID,0.126953,
2009-02-05, 00:56:04,VALID,1000.88,VALID,0,VALID,87.9228,VALID,0,VALID,26.1375,VALID,291,VALID,0.851563,
2009-02-05, 00:57:04,VALID,1000.87,VALID,0,VALID,88.1365,VALID,0,VALID,26.118,VALID,274,VALID,0.121484,
2009-02-05, 00:58:04,VALID,1000.82,VALID,0,VALID,88.1212,VALID,0,VALID,26.1395,VALID,293,VALID,0.894922,
2009-02-05, 00:59:04,VALID,1000.8,VALID,0,VALID,88.3119,VALID,0,VALID,26.1395,VALID,288,VALID,0.846484,
2009-02-05, 01:00:04,VALID,1000.79,VALID,0,VALID,88.0983,VALID,0,VALID,26.118,VALID,287,VALID,1.05938,
2009-02-05, 01:01:04,VALID,1000.76,VALID,0,VALID,87.961,VALID,0,VALID,26.0985,VALID,295,VALID,0.574219,
2009-02-05, 01:02:04,VALID,1000.74,VALID,0,VALID,88.1441,VALID,0,VALID,26.118,VALID,303,VALID,0.326953,
2009-02-05, 01:03:04,VALID,1000.72,VALID,0,VALID,88.1059,VALID,0,VALID,26.118,VALID,337,VALID,0.589453,
2009-02-05, 01:04:04,VALID,1000.71,VALID,0,VALID,88.0602,VALID,0,VALID,26.1375,VALID,287,VALID,0.727344,
2009-02-05, 01:05:04,VALID,1000.68,VALID,0,VALID,88.0449,VALID,0,VALID,26.118,VALID,275,VALID,0.248437,
2009-02-05, 01:06:04,VALID,1000.68,VALID,0,VALID,88.0373,VALID,0,VALID,26.159,VALID,283,VALID,0.445703,
2009-02-05, 01:07:04,VALID,1000.64,VALID,0,VALID,88.0754,VALID,0,VALID,26.118,VALID,287,VALID,0.228906,
2009-02-05, 01:08:04,VALID,1000.64,VALID,0,VALID,88.1517,VALID,0,VALID,26.159,VALID,287,VALID,0.0292969,
2009-02-05, 01:09:04,VALID,1000.61,VALID,0,VALID,88.2051,VALID,0,VALID,26.159,VALID,287,VALID,0.108594,
2009-02-05, 01:10:04,VALID,1000.6,VALID,0,VALID,88.2204,VALID,0,VALID,26.1395,VALID,289,VALID,0.233203,
2009-02-05, 01:11:04,VALID,1000.54,VALID,0,VALID,88.1517,VALID,0,VALID,26.118,VALID,318,VALID,0.459766,
2009-02-05, 01:12:04,VALID,1000.53,VALID,0,VALID,88.1899,VALID,0,VALID,26.118,VALID,265,VALID,0.617578,
2009-02-05, 01:13:04,VALID,1000.49,VALID,0,VALID,88.1975,VALID,0,VALID,26.1395,VALID,289,VALID,0.598047,
2009-02-05, 01:14:04,VALID,1000.52,VALID,0,VALID,88.2051,VALID,0,VALID,26.118,VALID,320,VALID,0.419922,
2009-02-05, 01:15:04,VALID,1000.46,VALID,0,VALID,88.1212,VALID,0,VALID,26.0985,VALID,319,VALID,0.111328,
2009-02-05, 01:16:04,VALID,1000.45,VALID,0,VALID,88.2051,VALID,0,VALID,26.0791,VALID,319,VALID,0,
2009-02-05, 01:17:04,VALID,1000.44,VALID,0,VALID,88.289,VALID,0,VALID,26.1005,VALID,319,VALID,0,
2009-02-05, 01:18:04,VALID,1000.44,VALID,0,VALID,88.3958,VALID,0,VALID,26.0791,VALID,319,VALID,0,
2009-02-05, 01:19:04,VALID,1000.4,VALID,0,VALID,88.5103,VALID,0,VALID,26.0401,VALID,322,VALID,0,
2009-02-05, 01:20:04,VALID,1000.39,VALID,0,VALID,88.6552,VALID,0,VALID,26.0206,VALID,322,VALID,0,
2009-02-05, 01:21:04,VALID,1000.35,VALID,0,VALID,88.6247,VALID,0,VALID,26.0226,VALID,318,VALID,0.250391,
2009-02-05, 01:22:04,VALID,1000.33,VALID,0,VALID,88.6934,VALID,0,VALID,26.0031,VALID,313,VALID,0.189844,
2009-02-05, 01:23:04,VALID,1000.29,VALID,0,VALID,88.8231,VALID,0,VALID,25.9817,VALID,277,VALID,0,
2009-02-05, 01:24:04,VALID,1000.28,VALID,0,VALID,88.8765,VALID,0,VALID,25.9622,VALID,277,VALID,0.179688,
2009-02-05, 01:25:04,VALID,1000.25,VALID,0,VALID,88.8765,VALID,0,VALID,25.9427,VALID,5,VALID,0.434375,
2009-02-05, 01:26:04,VALID,1000.24,VALID,0,VALID,88.9222,VALID,0,VALID,25.9232,VALID,5,VALID,0,
2009-02-05, 01:27:04,VALID,1000.19,VALID,0,VALID,88.9909,VALID,0,VALID,25.9232,VALID,3,VALID,0.437109,
2009-02-05, 01:28:04,VALID,1000.17,VALID,0,VALID,89.1206,VALID,0,VALID,25.9232,VALID,3,VALID,0.0550781,
2009-02-05, 01:29:04,VALID,1000.14,VALID,0,VALID,89.2045,VALID,0,VALID,25.9038,VALID,3,VALID,0.165625,
2009-02-05, 01:30:04,VALID,1000.13,VALID,0,VALID,89.2655,VALID,0,VALID,25.9057,VALID,3,VALID,0.379687,
2009-02-05, 01:31:04,VALID,1000.11,VALID,0,VALID,89.3189,VALID,0,VALID,25.8843,VALID,3,VALID,0.150391,
2009-02-05, 01:32:04,VALID,1000.1,VALID,0,VALID,89.3952,VALID,0,VALID,25.8648,VALID,3,VALID,0,
2009-02-05, 01:33:04,VALID,1000.09,VALID,0,VALID,89.4334,VALID,0,VALID,25.8668,VALID,301,VALID,0.316797,
2009-02-05, 01:34:04,VALID,1000.08,VALID,0,VALID,89.3189,VALID,0,VALID,25.8668,VALID,320,VALID,0.710938,
2009-02-05, 01:35:04,VALID,1000.07,VALID,0,VALID,89.2503,VALID,0,VALID,25.8648,VALID,351,VALID,0.273828,
2009-02-05, 01:36:04,VALID,1000.06,VALID,0,VALID,89.235,VALID,0,VALID,25.8453,VALID,349,VALID,0.449609,
2009-02-05, 01:37:04,VALID,1000.06,VALID,0,VALID,89.235,VALID,0,VALID,25.8648,VALID,349,VALID,0.250781,
2009-02-05, 01:38:04,VALID,1000.05,VALID,0,VALID,89.2503,VALID,0,VALID,25.8453,VALID,349,VALID,0.319531,
2009-02-05, 01:39:04,VALID,1000.04,VALID,0,VALID,89.2274,VALID,0,VALID,25.8453,VALID,357,VALID,0.475781,
2009-02-05, 01:40:04,VALID,1000.01,VALID,0,VALID,89.2045,VALID,0,VALID,25.8259,VALID,350,VALID,0.786328,
2009-02-05, 01:41:04,VALID,999.988,VALID,0,VALID,89.2274,VALID,0,VALID,25.8668,VALID,349,VALID,0.1125,
2009-02-05, 01:42:04,VALID,999.988,VALID,0,VALID,89.2808,VALID,0,VALID,25.8687,VALID,277,VALID,0.566016,
2009-02-05, 01:43:04,VALID,999.96,VALID,0,VALID,89.2884,VALID,0,VALID,25.8259,VALID,281,VALID,0.227734,
2009-02-05, 01:44:04,VALID,999.975,VALID,0,VALID,89.2655,VALID,0,VALID,25.8064,VALID,331,VALID,0.210156,
2009-02-05, 01:45:04,VALID,999.925,VALID,0,VALID,89.2808,VALID,0,VALID,25.8064,VALID,285,VALID,0.482812,
2009-02-05, 01:46:04,VALID,999.913,VALID,0,VALID,89.2579,VALID,0,VALID,25.8278,VALID,285,VALID,0.05,
2009-02-05, 01:47:04,VALID,999.938,VALID,0,VALID,89.235,VALID,0,VALID,25.7869,VALID,284,VALID,0.177344,
2009-02-05, 01:48:04,VALID,999.881,VALID,0,VALID,89.2198,VALID,0,VALID,25.8278,VALID,281,VALID,0.317969,
2009-02-05, 01:49:04,VALID,999.907,VALID,0,VALID,89.0977,VALID,0,VALID,25.8278,VALID,291,VALID,0.840234,
2009-02-05, 01:50:04,VALID,999.872,VALID,0,VALID,89.0138,VALID,0,VALID,25.8259,VALID,290,VALID,0.752344,
2009-02-05, 01:51:04,VALID,999.844,VALID,0,VALID,88.8459,VALID,0,VALID,25.8453,VALID,279,VALID,0.541016,
2009-02-05, 01:52:04,VALID,999.812,VALID,0,VALID,88.762,VALID,0,VALID,25.8648,VALID,287,VALID,0.578516,
2009-02-05, 01:53:04,VALID,999.768,VALID,0,VALID,88.6552,VALID,0,VALID,25.8843,VALID,292,VALID,0.0777344,
2009-02-05, 01:54:04,VALID,999.726,VALID,0,VALID,88.495,VALID,0,VALID,25.8843,VALID,346,VALID,0.272656,
2009-02-05, 01:55:04,VALID,999.69,VALID,0,VALID,88.434,VALID,0,VALID,25.8843,VALID,348,VALID,0.758203,
2009-02-05, 01:56:04,VALID,999.63,VALID,0,VALID,88.5026,VALID,0,VALID,25.8843,VALID,351,VALID,0.0140625,
2009-02-05, 01:57:04,VALID,999.602,VALID,0,VALID,88.5713,VALID,0,VALID,25.8843,VALID,351,VALID,0.0394531,
2009-02-05, 01:58:04,VALID,999.586,VALID,0,VALID,88.5866,VALID,0,VALID,25.8863,VALID,348,VALID,0.450391,
2009-02-05, 01:59:04,VALID,999.582,VALID,0,VALID,88.6018,VALID,0,VALID,25.8453,VALID,348,VALID,0.539453,
2009-02-05, 02:00:04,VALID,999.573,VALID,0,VALID,88.6628,VALID,0,VALID,25.8453,VALID,350,VALID,0.165625,
2009-02-05, 02:01:04,VALID,999.54,VALID,0,VALID,88.6781,VALID,0,VALID,25.8259,VALID,352,VALID,0.25625,
2009-02-05, 02:02:04,VALID,999.525,VALID,0,VALID,88.64,VALID,0,VALID,25.8259,VALID,289,VALID,0.626172,
2009-02-05, 02:03:04,VALID,999.534,VALID,0,VALID,88.7315,VALID,0,VALID,25.8259,VALID,283,VALID,0.0339844,
2009-02-05, 02:04:04,VALID,999.501,VALID,0,VALID,88.7544,VALID,0,VALID,25.8064,VALID,282,VALID,0.105859,
2009-02-05, 02:05:04,VALID,999.468,VALID,0,VALID,88.6628,VALID,0,VALID,25.8259,VALID,356,VALID,0.183594,
2009-02-05, 02:06:04,VALID,999.439,VALID,0,VALID,88.5103,VALID,0,VALID,25.8259,VALID,350,VALID,0.909766,
2009-02-05, 02:07:04,VALID,999.437,VALID,0,VALID,88.4492,VALID,0,VALID,25.8278,VALID,357,VALID,1.11836,
2009-02-05, 02:08:04,VALID,999.426,VALID,0,VALID,88.4416,VALID,0,VALID,25.8259,VALID,350,VALID,0.829297,
2009-02-05, 02:09:04,VALID,999.414,VALID,0,VALID,88.3195,VALID,0,VALID,25.8453,VALID,349,VALID,0.648828,
2009-02-05, 02:10:04,VALID,999.413,VALID,0,VALID,88.3119,VALID,0,VALID,25.8453,VALID,358,VALID,0.412109,
2009-02-05, 02:11:04,VALID,999.404,VALID,0,VALID,88.3424,VALID,0,VALID,25.8648,VALID,295,VALID,0.0195313,
2009-02-05, 02:12:04,VALID,999.428,VALID,0,VALID,88.2356,VALID,0,VALID,25.8453,VALID,333,VALID,0.623438,
2009-02-05, 02:13:04,VALID,999.411,VALID,0,VALID,88.2127,VALID,0,VALID,25.8648,VALID,297,VALID,0.482812,
2009-02-05, 02:14:04,VALID,999.398,VALID,0,VALID,88.167,VALID,0,VALID,25.8453,VALID,286,VALID,0.101953,
2009-02-05, 02:15:04,VALID,999.36,VALID,0,VALID,88.167,VALID,0,VALID,25.8648,VALID,288,VALID,0.169141,
2009-02-05, 02:16:04,VALID,999.376,VALID,0,VALID,88.1288,VALID,0,VALID,25.8648,VALID,268,VALID,0.341797,
2009-02-05, 02:17:04,VALID,999.373,VALID,0,VALID,87.9686,VALID,0,VALID,25.8863,VALID,278,VALID,0.741016,
2009-02-05, 02:18:04,VALID,999.362,VALID,0,VALID,87.8237,VALID,0,VALID,25.9038,VALID,283,VALID,0.947266,
2009-02-05, 02:19:04,VALID,999.363,VALID,0,VALID,87.6101,VALID,0,VALID,25.9232,VALID,2,VALID,1.04453,
2009-02-05, 02:20:04,VALID,999.358,VALID,0,VALID,87.5872,VALID,0,VALID,25.9427,VALID,239,VALID,0.125,
2009-02-05, 02:21:04,VALID,999.358,VALID,0,VALID,87.6101,VALID,0,VALID,25.9836,VALID,239,VALID,0.139453,
2009-02-05, 02:22:04,VALID,999.351,VALID,0,VALID,87.4956,VALID,0,VALID,25.9622,VALID,247,VALID,0.620313,
2009-02-05, 02:23:04,VALID,999.321,VALID,0,VALID,87.343,VALID,0,VALID,25.9817,VALID,287,VALID,0.660156,
2009-02-05, 02:24:04,VALID,999.355,VALID,0,VALID,87.1371,VALID,0,VALID,25.9817,VALID,317,VALID,0.511719,
2009-02-05, 02:25:04,VALID,999.327,VALID,0,VALID,86.9769,VALID,0,VALID,26.0206,VALID,298,VALID,0.917969,
2009-02-05, 02:26:04,VALID,999.303,VALID,0,VALID,86.7556,VALID,0,VALID,26.0401,VALID,285,VALID,0.633203,
2009-02-05, 02:27:04,VALID,999.275,VALID,0,VALID,86.5115,VALID,0,VALID,26.0791,VALID,281,VALID,1.02852,
2009-02-05, 02:28:04,VALID,999.264,VALID,0,VALID,86.3132,VALID,0,VALID,26.0791,VALID,300,VALID,0.566016,
2009-02-05, 02:29:04,VALID,999.267,VALID,0,VALID,86.4734,VALID,0,VALID,26.0985,VALID,300,VALID,0.00820312,
2009-02-05, 02:30:04,VALID,999.295,VALID,0,VALID,86.5115,VALID,0,VALID,26.0791,VALID,300,VALID,0.0121094,
2009-02-05, 02:31:04,VALID,999.269,VALID,0,VALID,86.4886,VALID,0,VALID,26.0791,VALID,309,VALID,0.266406,
2009-02-05, 02:32:04,VALID,999.293,VALID,0,VALID,86.7251,VALID,0,VALID,26.0401,VALID,311,VALID,0.0242187,
2009-02-05, 02:33:04,VALID,999.278,VALID,0,VALID,86.7709,VALID,0,VALID,26.0401,VALID,328,VALID,0.23125,
2009-02-05, 02:34:04,VALID,999.293,VALID,0,VALID,86.7785,VALID,0,VALID,26.0421,VALID,334,VALID,0.303125,
2009-02-05, 02:35:04,VALID,999.288,VALID,0,VALID,86.7785,VALID,0,VALID,26.0206,VALID,348,VALID,0.829297,
2009-02-05, 02:36:04,VALID,999.295,VALID,0,VALID,86.9387,VALID,0,VALID,26.0226,VALID,354,VALID,0.289063,
2009-02-05, 02:37:04,VALID,999.306,VALID,0,VALID,86.9464,VALID,0,VALID,26.0226,VALID,333,VALID,0.648438,
2009-02-05, 02:38:04,VALID,999.315,VALID,0,VALID,86.954,VALID,0.100563,VALID,26.0206,VALID,330,VALID,0.736719,
2009-02-05, 02:39:04,VALID,999.308,VALID,0,VALID,86.8319,VALID,0.100563,VALID,26.0012,VALID,350,VALID,1.54492,
2009-02-05, 02:40:04,VALID,999.305,VALID,0,VALID,86.8701,VALID,0.100563,VALID,26.0012,VALID,332,VALID,0.735547,
2009-02-05, 02:41:04,VALID,999.291,VALID,0,VALID,86.9616,VALID,0,VALID,25.9622,VALID,299,VALID,0.636719,
2009-02-05, 02:42:04,VALID,999.259,VALID,0,VALID,87.1218,VALID,0,VALID,25.9427,VALID,359,VALID,0.418359,
2009-02-05, 02:43:04,VALID,999.239,VALID,0,VALID,87.0608,VALID,0,VALID,25.9232,VALID,338,VALID,0.755859,
2009-02-05, 02:44:04,VALID,999.2,VALID,0,VALID,87.1294,VALID,0,VALID,25.9038,VALID,330,VALID,0.280078,
2009-02-05, 02:45:04,VALID,999.195,VALID,0,VALID,87.282,VALID,0,VALID,25.8843,VALID,278,VALID,0.287109,
2009-02-05, 02:46:04,VALID,999.195,VALID,0,VALID,87.282,VALID,0,VALID,25.8843,VALID,327,VALID,0.51875,
2009-02-05, 02:47:04,VALID,999.181,VALID,0,VALID,87.4117,VALID,0,VALID,25.8453,VALID,17,VALID,0.465234,
2009-02-05, 02:48:04,VALID,999.223,VALID,0,VALID,87.5414,VALID,0,VALID,25.8259,VALID,357,VALID,0.505078,
2009-02-05, 02:49:04,VALID,999.18,VALID,0,VALID,87.5109,VALID,0,VALID,25.7869,VALID,303,VALID,0.647266,
2009-02-05, 02:50:04,VALID,999.17,VALID,0,VALID,87.5338,VALID,0,VALID,25.7869,VALID,338,VALID,0.844141,
2009-02-05, 02:51:04,VALID,999.155,VALID,0,VALID,87.6482,VALID,0,VALID,25.7674,VALID,268,VALID,0.196875,
2009-02-05, 02:52:04,VALID,999.141,VALID,0,VALID,87.7321,VALID,0,VALID,25.7285,VALID,351,VALID,0.458594,
2009-02-05, 02:53:04,VALID,999.151,VALID,0,VALID,87.7932,VALID,0,VALID,25.7285,VALID,313,VALID,0.141797,
2009-02-05, 02:54:04,VALID,999.142,VALID,0,VALID,87.9381,VALID,0,VALID,25.7304,VALID,317,VALID,0,
2009-02-05, 02:55:04,VALID,999.185,VALID,0,VALID,88.0068,VALID,0,VALID,25.6895,VALID,334,VALID,0.305078,
2009-02-05, 02:56:04,VALID,999.162,VALID,0,VALID,88.0373,VALID,0,VALID,25.67,VALID,3,VALID,0.413281,
2009-02-05, 02:57:04,VALID,999.16,VALID,0,VALID,88.1059,VALID,0,VALID,25.6506,VALID,336,VALID,0.965234,
2009-02-05, 02:58:04,VALID,999.173,VALID,0,VALID,88.2127,VALID,0,VALID,25.6311,VALID,346,VALID,0.49375,
2009-02-05, 02:59:04,VALID,999.192,VALID,0,VALID,88.228,VALID,0,VALID,25.5902,VALID,344,VALID,0.986719,
2009-02-05, 03:00:04,VALID,999.2,VALID,0,VALID,88.3119,VALID,0,VALID,25.6311,VALID,343,VALID,0.674609,
2009-02-05, 03:01:04,VALID,999.216,VALID,0,VALID,88.4569,VALID,0,VALID,25.6116,VALID,288,VALID,0.726953,
2009-02-05, 03:02:04,VALID,999.2,VALID,0,VALID,88.6018,VALID,0,VALID,25.5513,VALID,347,VALID,0.850391,
2009-02-05, 03:03:04,VALID,999.203,VALID,0,VALID,88.7849,VALID,0,VALID,25.5727,VALID,311,VALID,0.898828,
2009-02-05, 03:04:04,VALID,999.212,VALID,0,VALID,88.8917,VALID,0,VALID,25.5727,VALID,356,VALID,1.31172,
2009-02-05, 03:05:04,VALID,999.213,VALID,0,VALID,88.9833,VALID,0,VALID,25.5727,VALID,320,VALID,0.441797,
2009-02-05, 03:06:04,VALID,999.225,VALID,0,VALID,89.0367,VALID,0,VALID,25.5532,VALID,288,VALID,0.279297,
2009-02-05, 03:07:04,VALID,999.212,VALID,0,VALID,89.1053,VALID,0.100563,VALID,25.5532,VALID,286,VALID,0.910547,
2009-02-05, 03:08:04,VALID,999.227,VALID,0,VALID,89.0977,VALID,0,VALID,25.5532,VALID,294,VALID,0.300391,
2009-02-05, 03:09:04,VALID,999.211,VALID,0,VALID,89.174,VALID,0,VALID,25.5318,VALID,336,VALID,0.315234,
2009-02-05, 03:10:04,VALID,999.167,VALID,0,VALID,89.2426,VALID,0,VALID,25.5337,VALID,332,VALID,0.432813,
2009-02-05, 03:11:04,VALID,999.175,VALID,0,VALID,89.2503,VALID,0,VALID,25.5337,VALID,265,VALID,0.107031,
2009-02-05, 03:12:04,VALID,999.159,VALID,0,VALID,89.2884,VALID,0.100563,VALID,25.5532,VALID,266,VALID,0.300781,
2009-02-05, 03:13:04,VALID,999.153,VALID,0,VALID,89.3113,VALID,0,VALID,25.5123,VALID,266,VALID,0,
2009-02-05, 03:14:04,VALID,999.168,VALID,0,VALID,89.3647,VALID,0,VALID,25.5142,VALID,354,VALID,1.18828,
2009-02-05, 03:15:04,VALID,999.197,VALID,0,VALID,89.38,VALID,0.100563,VALID,25.4928,VALID,278,VALID,0.439063,
2009-02-05, 03:16:04,VALID,999.213,VALID,0,VALID,89.3876,VALID,0,VALID,25.5142,VALID,5,VALID,0.377734,
2009-02-05, 03:17:04,VALID,999.226,VALID,0,VALID,89.4105,VALID,0,VALID,25.5142,VALID,1,VALID,0.586328,
2009-02-05, 03:18:04,VALID,999.249,VALID,0,VALID,89.3342,VALID,0,VALID,25.5142,VALID,350,VALID,1.10078,
2009-02-05, 03:19:04,VALID,999.254,VALID,0,VALID,89.3113,VALID,0,VALID,25.5142,VALID,331,VALID,0.171484,
2009-02-05, 03:20:04,VALID,999.279,VALID,0,VALID,89.1816,VALID,0,VALID,25.5142,VALID,342,VALID,1.27344,
2009-02-05, 03:21:04,VALID,999.272,VALID,0,VALID,89.2045,VALID,0,VALID,25.5142,VALID,316,VALID,0.726953,
2009-02-05, 03:22:04,VALID,999.284,VALID,0,VALID,89.0519,VALID,0,VALID,25.5357,VALID,352,VALID,0.935547,
2009-02-05, 03:23:04,VALID,999.283,VALID,0,VALID,88.9985,VALID,0,VALID,25.5142,VALID,359,VALID,1.09023,
2009-02-05, 03:24:04,VALID,999.258,VALID,0,VALID,89.0138,VALID,0,VALID,25.5337,VALID,356,VALID,0.805469,
2009-02-05, 03:25:04,VALID,999.282,VALID,0,VALID,89.029,VALID,0,VALID,25.5337,VALID,358,VALID,0.457031,
2009-02-05, 03:26:04,VALID,999.286,VALID,0,VALID,89.0061,VALID,0.100563,VALID,25.5123,VALID,352,VALID,0.584766,
2009-02-05, 03:27:04,VALID,999.309,VALID,0,VALID,89.0214,VALID,0,VALID,25.5337,VALID,3,VALID,0.600781,
2009-02-05, 03:28:04,VALID,999.302,VALID,0,VALID,89.0824,VALID,0.100563,VALID,25.5142,VALID,291,VALID,0.471094,
2009-02-05, 03:29:04,VALID,999.302,VALID,0,VALID,89.0748,VALID,0.100563,VALID,25.4928,VALID,333,VALID,0.359766,
2009-02-05, 03:30:04,VALID,999.321,VALID,0,VALID,89.0824,VALID,0,VALID,25.4928,VALID,296,VALID,0.8375,
2009-02-05, 03:31:04,VALID,999.302,VALID,0,VALID,89.0595,VALID,0.100563,VALID,25.5123,VALID,332,VALID,0.271094,
2009-02-05, 03:32:04,VALID,999.273,VALID,0,VALID,89.0061,VALID,0,VALID,25.4928,VALID,280,VALID,1.03437,
2009-02-05, 03:33:04,VALID,999.246,VALID,0,VALID,88.9756,VALID,0.100563,VALID,25.5123,VALID,329,VALID,0.867578,
2009-02-05, 03:34:04,VALID,999.203,VALID,0,VALID,88.8841,VALID,0.100563,VALID,25.5318,VALID,307,VALID,0.637891,
2009-02-05, 03:35:04,VALID,999.189,VALID,0,VALID,88.8231,VALID,0,VALID,25.5532,VALID,347,VALID,1.02266,
2009-02-05, 03:36:04,VALID,999.218,VALID,0,VALID,88.8231,VALID,0.100563,VALID,25.5513,VALID,267,VALID,0.984375,
2009-02-05, 03:37:04,VALID,999.233,VALID,0,VALID,88.7086,VALID,0.100563,VALID,25.5513,VALID,323,VALID,0.713281,
2009-02-05, 03:38:04,VALID,999.255,VALID,0,VALID,88.4569,VALID,0.100563,VALID,25.5513,VALID,286,VALID,1.40234,
2009-02-05, 03:39:04,VALID,999.265,VALID,0,VALID,88.4721,VALID,0.100563,VALID,25.5902,VALID,295,VALID,0.522266,
2009-02-05, 03:40:04,VALID,999.328,VALID,0,VALID,88.1288,VALID,0,VALID,25.6116,VALID,298,VALID,1.18477,
2009-02-05, 03:41:04,VALID,999.328,VALID,0,VALID,88.0602,VALID,0,VALID,25.6311,VALID,346,VALID,0.655078,
2009-02-05, 03:42:04,VALID,999.325,VALID,0,VALID,88.022,VALID,0,VALID,25.5902,VALID,257,VALID,0.832031,
2009-02-05, 03:43:04,VALID,999.343,VALID,0,VALID,87.8847,VALID,0,VALID,25.6311,VALID,336,VALID,0.646875,